星链-1729 (STARLINK-1729 )

导读 | 星芒AI

STARLINK-1729 是 SpaceX Starlink 项目中的一颗低轨通信卫星,属于该星座的第二批部署任务(5-2)。它于2020年5月23日通过猎鹰9号火箭成功发射,运行在约550公里高的近地轨道,主要用于提供全球宽带互联网服务。该卫星采用先进的相控阵天线和激光通信技术,支持高速、低延迟的网络连接。作为Starlink系统的一部分,它为偏远地区和传统网络难以覆盖的区域提供互联网接入服务。

基本信息
目录编号:
46583
目录名称:
STARLINK-1729
国际标识:
2020-070BD
轨道中心:
EARTH
卫星名称:
星链-1729
卫星全名:
星链-1729 (STARLINK-1729 )
卫星状态:
已陨落 最后检测时间 2025-01-31
发射日期:
2020-10-06 UTC
国别 :
美国 (US)
星等 :
--
轨道信息
数据来源 国际轨道数据
星历时间: 2025-01-31T23:28:15+0800
轨道信息已过期318天
半长轴: 6515.938km
偏心率: 0.0014459
轨道倾角: 53.033°
近地点辐角 328.563°
升交点赤经 147.522°
平近点角 115.604°
近地点: 128.381km
远地点: 147.225km
周期: 87.242分钟
每日圈数: 16.505833
详细信息
固有亮度:
5
最大亮度:
2.5
卫星平台:
Starlink V1.0
覆盖范围:
全球
运营商:
太空探索技术公司
运营商所在国:
美国
制造商(研发单位):
太空探索技术公司
制造商所在国:
美国
使用方式:
暂无
卫星简介
星链(Starlink)计划是由太空探索技术公司(SpaceX)提出的一个巨型低轨卫星互联网星座项目,计划在2019年至2024年间在太空搭建由约1.2万颗卫星组成的“星链”网络,其中1584颗将部署在地球上空550千米处的近地轨道,并从2020年开始工作。该卫星仍在工作。